Weather History for CWGB - May, 2013

Change the Weather History Date:

Sunday, May 26, 2013

  Actual Average Record
Temperature  
Mean Temperature 54 °F -  
Max Temperature 58 °F - - ()
Min Temperature 51 °F - - ()
Degree Days  
Heating Degree Days 10    
Growing Degree Days 4 (Base 50)    
Moisture  
Dew Point 50 °F    
Average Humidity 82    
Maximum Humidity 89    
Minimum Humidity 75    
Precipitation  
Precipitation 0.00 in - - ()
Sea Level Pressure  
Sea Level Pressure 29.94 in    
Wind  
Wind Speed 8 mph ()    
Max Wind Speed 22 mph    
Max Gust Speed -    
T = Trace of Precipitation, MM = Missing Value Source: Averaged Metar Reports

Daily Weather History Graph

Daily Weather History Graph

Search for Another Location

Airport or City:

Trip Planner

Search our weather history database for the weather conditions in past years. The results will help you decide how hot, cold, wet, or windy it might be!

Date:

Astronomy

May. 26, 2013 Rise Set
Actual Time 5:20 AM PDT 9:08 PM PDT
Civil Twilight 4:39 AM PDT 9:49 PM PDT
Nautical Twilight 3:43 AM PDT 10:45 PM PDT
Astronomical Twilight 2:18 AM PDT 12:12 AM PDT
Moon 10:57 PM PDT (5/26) 6:57 AM PDT (5/26)
Length of Visible Light 17h 09m
Length of Day
15h 48m
Waning Gibbous, 96% of the Moon is Illuminated
May 26
Waning Gibbous
May 31
Last Quarter
Jun 8
New
Jun 16
First Quarter
Jun 23
Full

Hourly Weather History & Observations

Time (PDT) Temp. Dew Point Humidity Pressure Visibility Wind Dir Wind Speed Gust Speed Precip Events Conditions
12:00 AM 52.7 °F 48.0 °F 84% 29.97 in - West 2.3 mph - N/A   Unknown
1:00 AM 52.3 °F 47.1 °F 82% 29.96 in - SW 3.5 mph - N/A   Unknown
2:00 AM 52.2 °F 47.8 °F 85% 29.96 in - WSW 4.6 mph - N/A   Unknown
3:00 AM 51.8 °F 47.8 °F 86% 29.95 in - WSW 5.8 mph - N/A   Unknown
4:00 AM 52.5 °F 47.8 °F 84% 29.95 in - WSW 5.8 mph - N/A   Unknown
5:00 AM 52 °F 47 °F 79% 29.95 in - WSW 4.6 mph - -  
5:00 AM 52.2 °F 47.3 °F 83% 29.95 in - WSW 4.6 mph - N/A   Unknown
6:00 AM 52.5 °F 47.3 °F 82% 29.94 in - WSW 8.1 mph - N/A   Unknown
7:00 AM 52.5 °F 47.7 °F 84% 29.95 in - WSW 6.9 mph - N/A   Unknown
8:00 AM 53.2 °F 48.4 °F 84% 29.95 in - WSW 5.8 mph - N/A   Unknown
9:00 AM 53.8 °F 48.6 °F 82% 29.95 in - WSW 4.6 mph - N/A   Unknown
10:00 AM 55.6 °F 49.5 °F 80% 29.95 in - West 2.3 mph - N/A   Unknown
11:00 AM 56 °F 50 °F 75% 29.95 in - East 6.9 mph - -  
11:00 AM 56.3 °F 50.2 °F 80% 29.95 in - East 6.9 mph - N/A   Unknown
12:00 PM 57.9 °F 51.4 °F 79% 29.95 in - ESE 13.8 mph - N/A   Unknown
1:00 PM 57.9 °F 50.7 °F 77% 29.94 in - ESE 17.3 mph - N/A   Unknown
2:00 PM 58.5 °F 51.1 °F 76% 29.94 in - ESE 20.7 mph - N/A   Unknown
3:00 PM 57.6 °F 49.6 °F 75% 29.94 in - ESE 21.9 mph - N/A   Unknown
4:00 PM 57.7 °F 51.1 °F 78% 29.94 in - ESE 21.9 mph - N/A   Unknown
5:00 PM 57 °F 52 °F 79% 29.94 in - ESE 18.4 mph - -  
5:00 PM 57.0 °F 52.2 °F 84% 29.94 in - ESE 18.4 mph - N/A   Unknown
6:00 PM 57.0 °F 52.2 °F 84% 29.93 in - ESE 19.6 mph - N/A   Unknown
7:00 PM 56.8 °F 52.2 °F 84% 29.92 in - ESE 18.4 mph - N/A   Unknown
8:00 PM 55.9 °F 52.0 °F 87% 29.92 in - ESE 18.4 mph - N/A   Unknown
9:00 PM 55.6 °F 52.3 °F 89% 29.91 in - ESE 16.1 mph - N/A   Unknown
10:00 PM 55.4 °F 51.6 °F 87% 29.91 in - ESE 17.3 mph - N/A   Unknown
11:00 PM 56 °F 51 °F 80% 29.91 in - ESE 15.0 mph - -  
11:00 PM 55.6 °F 51.4 °F 86% 29.91 in - ESE 15.0 mph - N/A   Unknown